Year,Month,Day,Hour,Minute,Value (Times are PST for temperature in C)
2009,06,04,00,00,15.90
2009,06,04,00,01,15.90
2009,06,04,00,02,15.90
2009,06,04,00,03,15.90
2009,06,04,00,04,15.90
2009,06,04,00,05,15.90
2009,06,04,00,06,15.90
2009,06,04,00,07,15.90
2009,06,04,00,08,15.90
2009,06,04,00,09,15.90
2009,06,04,00,10,16.00
2009,06,04,00,11,16.00
2009,06,04,00,12,15.90
2009,06,04,00,13,15.90
2009,06,04,00,14,15.90
2009,06,04,00,15,15.90
2009,06,04,00,16,15.90
2009,06,04,00,17,15.80
2009,06,04,00,18,15.80
2009,06,04,00,19,15.80
2009,06,04,00,20,15.80
2009,06,04,00,21,15.80
2009,06,04,00,22,15.80
2009,06,04,00,23,15.80
2009,06,04,00,24,15.80
2009,06,04,00,25,15.70
2009,06,04,00,26,15.60
2009,06,04,00,27,15.60
2009,06,04,00,28,15.50
2009,06,04,00,29,15.50
2009,06,04,00,30,15.40
2009,06,04,00,31,15.30
2009,06,04,00,32,15.30
2009,06,04,00,33,15.20
2009,06,04,00,34,15.20
2009,06,04,00,35,15.10
2009,06,04,00,36,15.10
2009,06,04,00,37,15.10
2009,06,04,00,38,15.10
2009,06,04,00,39,15.10
2009,06,04,00,40,15.00
2009,06,04,00,41,15.00
2009,06,04,00,42,15.00
2009,06,04,00,43,15.00
2009,06,04,00,44,15.00
2009,06,04,00,45,15.00
2009,06,04,00,46,15.00
2009,06,04,00,47,15.00
2009,06,04,00,48,15.00
2009,06,04,00,49,15.00
2009,06,04,00,50,15.00
2009,06,04,00,51,15.00
2009,06,04,00,52,15.00
2009,06,04,00,53,15.00
2009,06,04,00,54,15.00
2009,06,04,00,55,15.00
2009,06,04,00,56,15.00
2009,06,04,00,57,15.00
2009,06,04,00,58,15.00
2009,06,04,00,59,15.10
2009,06,04,01,00,15.10
2009,06,04,01,01,15.10
2009,06,04,01,02,15.10
2009,06,04,01,03,15.10
2009,06,04,01,04,15.20
2009,06,04,01,05,15.20
2009,06,04,01,06,15.30
2009,06,04,01,07,15.30
2009,06,04,01,08,15.30
2009,06,04,01,09,15.40
2009,06,04,01,10,15.40
2009,06,04,01,11,15.50
2009,06,04,01,12,15.50
2009,06,04,01,13,15.50
2009,06,04,01,14,15.60
2009,06,04,01,15,15.60
2009,06,04,01,16,15.60
2009,06,04,01,17,15.60
2009,06,04,01,18,15.70
2009,06,04,01,19,15.70
2009,06,04,01,20,15.70
2009,06,04,01,21,15.70
2009,06,04,01,22,15.80
2009,06,04,01,23,15.80
2009,06,04,01,24,15.80
2009,06,04,01,25,15.80
2009,06,04,01,26,15.80
2009,06,04,01,27,15.80
2009,06,04,01,28,15.80
2009,06,04,01,29,15.80
2009,06,04,01,30,15.80
2009,06,04,01,31,15.80
2009,06,04,01,32,15.80
2009,06,04,01,33,15.80
2009,06,04,01,34,15.80
2009,06,04,01,35,15.80
2009,06,04,01,36,15.80
2009,06,04,01,37,15.80
2009,06,04,01,38,15.80
2009,06,04,01,39,15.80
2009,06,04,01,40,15.80
2009,06,04,01,41,15.80
2009,06,04,01,42,15.80
2009,06,04,01,43,15.80
2009,06,04,01,44,15.90
2009,06,04,01,45,15.90
2009,06,04,01,46,15.90
2009,06,04,01,47,15.90
2009,06,04,01,48,15.90
2009,06,04,01,49,15.90
2009,06,04,01,50,15.90
2009,06,04,01,51,15.90
2009,06,04,01,52,15.90
2009,06,04,01,53,16.10
2009,06,04,01,54,16.10
2009,06,04,01,55,16.10
2009,06,04,01,56,16.10
2009,06,04,01,57,16.00
2009,06,04,01,58,15.90
2009,06,04,01,59,15.90
2009,06,04,02,00,15.90
2009,06,04,02,01,15.90
2009,06,04,02,02,15.90
2009,06,04,02,03,15.90
2009,06,04,02,04,15.90
2009,06,04,02,05,15.90
2009,06,04,02,06,15.90
2009,06,04,02,07,15.90
2009,06,04,02,08,15.90
2009,06,04,02,09,15.90
2009,06,04,02,10,15.90
2009,06,04,02,11,15.90
2009,06,04,02,12,15.90
2009,06,04,02,13,15.90
2009,06,04,02,14,15.90
2009,06,04,02,15,15.90
2009,06,04,02,16,15.90
2009,06,04,02,17,15.90
2009,06,04,02,18,15.90
2009,06,04,02,19,15.90
2009,06,04,02,20,15.90
2009,06,04,02,21,15.90
2009,06,04,02,22,15.90
2009,06,04,02,23,15.90
2009,06,04,02,24,15.90
2009,06,04,02,25,15.90
2009,06,04,02,26,15.80
2009,06,04,02,27,15.80
2009,06,04,02,28,15.80
2009,06,04,02,29,15.80
2009,06,04,02,30,15.80
2009,06,04,02,31,15.80
2009,06,04,02,32,15.80
2009,06,04,02,33,15.70
2009,06,04,02,34,15.70
2009,06,04,02,35,15.70
2009,06,04,02,36,15.70
2009,06,04,02,37,15.70
2009,06,04,02,38,15.70
2009,06,04,02,39,15.60
2009,06,04,02,40,15.60
2009,06,04,02,41,15.60
2009,06,04,02,42,15.60
2009,06,04,02,43,15.50
2009,06,04,02,44,15.50
2009,06,04,02,45,15.50
2009,06,04,02,46,15.50
2009,06,04,02,47,15.40
2009,06,04,02,48,15.40
2009,06,04,02,49,15.40
2009,06,04,02,50,15.40
2009,06,04,02,51,15.40
2009,06,04,02,52,15.40
2009,06,04,02,53,15.30
2009,06,04,02,54,15.40
2009,06,04,02,55,15.40
2009,06,04,02,56,15.40
2009,06,04,02,57,15.40
2009,06,04,02,58,15.40
2009,06,04,02,59,15.30
2009,06,04,03,00,15.30
2009,06,04,03,01,15.30
2009,06,04,03,02,15.30
2009,06,04,03,03,15.30
2009,06,04,03,04,15.30
2009,06,04,03,05,15.30
2009,06,04,03,06,15.20
2009,06,04,03,07,15.20
2009,06,04,03,08,15.20
2009,06,04,03,09,15.20
2009,06,04,03,10,15.10
2009,06,04,03,11,15.10
2009,06,04,03,12,15.10
2009,06,04,03,13,15.00
2009,06,04,03,14,15.00
2009,06,04,03,15,15.00
2009,06,04,03,16,14.90
2009,06,04,03,17,14.90
2009,06,04,03,18,14.90
2009,06,04,03,19,14.90
2009,06,04,03,20,14.80
2009,06,04,03,21,14.80
2009,06,04,03,22,14.80
2009,06,04,03,23,14.80
2009,06,04,03,24,14.80
2009,06,04,03,25,14.80
2009,06,04,03,26,14.70
2009,06,04,03,27,14.70
2009,06,04,03,28,14.70
2009,06,04,03,29,14.70
2009,06,04,03,30,14.70
2009,06,04,03,31,14.70
2009,06,04,03,32,14.60
2009,06,04,03,33,14.60
2009,06,04,03,34,14.60
2009,06,04,03,35,14.60
2009,06,04,03,36,14.60
2009,06,04,03,37,14.50
2009,06,04,03,38,14.50
2009,06,04,03,39,14.50
2009,06,04,03,40,14.50
2009,06,04,03,41,14.50
2009,06,04,03,42,14.50
2009,06,04,03,43,14.50
2009,06,04,03,44,14.60
2009,06,04,03,45,14.60
2009,06,04,03,46,14.60
2009,06,04,03,47,14.70
2009,06,04,03,48,14.70
2009,06,04,03,49,14.70
2009,06,04,03,50,14.70
2009,06,04,03,51,14.70
2009,06,04,03,52,14.70
2009,06,04,03,53,14.70
2009,06,04,03,54,14.70
2009,06,04,03,55,14.70
2009,06,04,03,56,14.70
2009,06,04,03,57,14.70
2009,06,04,03,58,14.70
2009,06,04,03,59,14.70
2009,06,04,04,00,14.70
2009,06,04,04,01,14.60
2009,06,04,04,02,14.60
2009,06,04,04,03,14.60
2009,06,04,04,04,14.60
2009,06,04,04,05,14.60
2009,06,04,04,06,14.60
2009,06,04,04,07,14.60
2009,06,04,04,08,14.60
2009,06,04,04,09,14.60
2009,06,04,04,10,14.60
2009,06,04,04,11,14.50
2009,06,04,04,12,14.50
2009,06,04,04,13,14.40
2009,06,04,04,14,14.40
2009,06,04,04,15,14.30
2009,06,04,04,16,14.30
2009,06,04,04,17,14.30
2009,06,04,04,18,14.20
2009,06,04,04,19,14.20
2009,06,04,04,20,14.20
2009,06,04,04,21,14.20
2009,06,04,04,22,14.20
2009,06,04,04,23,14.20
2009,06,04,04,24,14.20
2009,06,04,04,25,14.20
2009,06,04,04,26,14.10
2009,06,04,04,27,14.10
2009,06,04,04,28,14.10
2009,06,04,04,29,14.10
2009,06,04,04,30,14.10
2009,06,04,04,31,14.10
2009,06,04,04,32,14.10
2009,06,04,04,33,14.10
2009,06,04,04,34,14.10
2009,06,04,04,35,14.10
2009,06,04,04,36,14.10
2009,06,04,04,37,14.00
2009,06,04,04,38,14.00
2009,06,04,04,39,14.00
2009,06,04,04,40,14.00
2009,06,04,04,41,13.90
2009,06,04,04,42,13.90
2009,06,04,04,43,13.90
2009,06,04,04,44,13.90
2009,06,04,04,45,13.90
2009,06,04,04,46,13.80
2009,06,04,04,47,13.80
2009,06,04,04,48,13.80
2009,06,04,04,49,13.70
2009,06,04,04,50,13.70
2009,06,04,04,51,13.70
2009,06,04,04,52,13.70
2009,06,04,04,53,13.70
2009,06,04,04,54,13.70
2009,06,04,04,55,13.70
2009,06,04,04,56,13.70
2009,06,04,04,57,13.60
2009,06,04,04,58,13.60
2009,06,04,04,59,13.60
2009,06,04,05,00,13.60
2009,06,04,05,01,13.60
2009,06,04,05,02,13.60
2009,06,04,05,03,13.60
2009,06,04,05,04,13.70
2009,06,04,05,05,13.70
2009,06,04,05,06,13.70
2009,06,04,05,07,13.70
2009,06,04,05,08,13.70
2009,06,04,05,09,13.70
2009,06,04,05,10,13.70
2009,06,04,05,11,13.70
2009,06,04,05,12,13.70
2009,06,04,05,13,13.70
2009,06,04,05,14,13.70
2009,06,04,05,15,13.70
2009,06,04,05,16,13.70
2009,06,04,05,17,13.70
2009,06,04,05,18,13.70
2009,06,04,05,19,13.70
2009,06,04,05,20,13.70
2009,06,04,05,21,13.80
2009,06,04,05,22,13.80
2009,06,04,05,23,13.80
2009,06,04,05,24,13.80
2009,06,04,05,25,13.80
2009,06,04,05,26,13.80
2009,06,04,05,27,13.70
2009,06,04,05,28,13.70
2009,06,04,05,29,13.70
2009,06,04,05,30,13.70
2009,06,04,05,31,13.70
2009,06,04,05,32,13.70
2009,06,04,05,33,13.70
2009,06,04,05,34,13.80
2009,06,04,05,35,13.80
2009,06,04,05,36,13.80
2009,06,04,05,37,13.80
2009,06,04,05,38,13.90
2009,06,04,05,39,13.90
2009,06,04,05,40,13.90
2009,06,04,05,41,13.90
2009,06,04,05,42,13.90
2009,06,04,05,43,13.90
2009,06,04,05,44,14.00
2009,06,04,05,45,14.00
2009,06,04,05,46,14.10
2009,06,04,05,47,14.20
2009,06,04,05,48,14.20
2009,06,04,05,49,14.30
2009,06,04,05,50,14.50
2009,06,04,05,51,14.50
2009,06,04,05,52,14.60
2009,06,04,05,53,14.70
2009,06,04,05,54,14.80
2009,06,04,05,55,14.80
2009,06,04,05,56,14.90
2009,06,04,05,57,15.00
2009,06,04,05,58,15.00
2009,06,04,05,59,15.10
2009,06,04,06,00,15.10
2009,06,04,06,01,15.20
2009,06,04,06,02,15.20
2009,06,04,06,03,15.30
2009,06,04,06,04,15.30
2009,06,04,06,05,15.30
2009,06,04,06,06,15.30
2009,06,04,06,07,15.30
2009,06,04,06,08,15.30
2009,06,04,06,09,15.30
2009,06,04,06,10,15.30
2009,06,04,06,11,15.40
2009,06,04,06,12,15.40
2009,06,04,06,13,15.40
2009,06,04,06,14,15.40
2009,06,04,06,15,15.40
2009,06,04,06,16,15.40
2009,06,04,06,17,15.40
2009,06,04,06,18,15.40
2009,06,04,06,19,15.30
2009,06,04,06,20,15.30
2009,06,04,06,21,15.30
2009,06,04,06,22,15.30
2009,06,04,06,23,15.30
2009,06,04,06,24,15.30
2009,06,04,06,25,15.30
2009,06,04,06,26,15.30
2009,06,04,06,27,15.30
2009,06,04,06,28,15.30
2009,06,04,06,29,15.30
2009,06,04,06,30,15.30
2009,06,04,06,31,15.30
2009,06,04,06,32,15.30
2009,06,04,06,33,15.30
2009,06,04,06,34,15.40
2009,06,04,06,35,15.40
2009,06,04,06,36,15.50
2009,06,04,06,37,15.60
2009,06,04,06,38,15.60
2009,06,04,06,39,15.80
2009,06,04,06,40,15.80
2009,06,04,06,41,16.00
2009,06,04,06,42,16.10
2009,06,04,06,43,16.20
2009,06,04,06,44,16.30
2009,06,04,06,45,16.40
2009,06,04,06,46,16.50
2009,06,04,06,47,16.60
2009,06,04,06,48,16.70
2009,06,04,06,49,16.70
2009,06,04,06,50,16.80
2009,06,04,06,51,16.90
2009,06,04,06,52,17.00
2009,06,04,06,53,17.00
2009,06,04,06,54,17.10
2009,06,04,06,55,17.10
2009,06,04,06,56,17.20
2009,06,04,06,57,17.20
2009,06,04,06,58,17.30
2009,06,04,06,59,17.30
2009,06,04,07,00,17.30
2009,06,04,07,01,17.30
2009,06,04,07,02,17.30
2009,06,04,07,03,17.40
2009,06,04,07,04,17.40
2009,06,04,07,05,17.50
2009,06,04,07,06,17.50
2009,06,04,07,07,17.60
2009,06,04,07,08,17.60
2009,06,04,07,09,17.70
2009,06,04,07,10,17.80
2009,06,04,07,11,17.80
2009,06,04,07,12,17.90
2009,06,04,07,13,17.90
2009,06,04,07,14,17.90
2009,06,04,07,15,18.10
2009,06,04,07,16,18.10
2009,06,04,07,17,18.20
2009,06,04,07,18,18.20
2009,06,04,07,19,18.30
2009,06,04,07,20,18.30
2009,06,04,07,21,18.40
2009,06,04,07,22,18.50
2009,06,04,07,23,18.60
2009,06,04,07,24,18.60
2009,06,04,07,25,18.70
2009,06,04,07,26,18.80
2009,06,04,07,27,18.90
2009,06,04,07,28,19.00
2009,06,04,07,29,19.10
2009,06,04,07,30,19.10
2009,06,04,07,31,19.10
2009,06,04,07,32,19.20
2009,06,04,07,33,19.20
2009,06,04,07,34,19.20
2009,06,04,07,35,19.20
2009,06,04,07,36,19.20
2009,06,04,07,37,19.20
2009,06,04,07,38,19.20
2009,06,04,07,39,19.20
2009,06,04,07,40,19.20
2009,06,04,07,41,19.20
2009,06,04,07,42,19.20
2009,06,04,07,43,19.20
2009,06,04,07,44,19.30
2009,06,04,07,45,19.30
2009,06,04,07,46,19.40
2009,06,04,07,47,19.40
2009,06,04,07,48,19.50
2009,06,04,07,49,19.50
2009,06,04,07,50,19.50
2009,06,04,07,51,19.50
2009,06,04,07,52,19.50
2009,06,04,07,53,19.50
2009,06,04,07,54,19.40
2009,06,04,07,55,19.40
2009,06,04,07,56,19.40
2009,06,04,07,57,19.40
2009,06,04,07,58,19.40
2009,06,04,07,59,19.40
2009,06,04,08,00,19.40
2009,06,04,08,01,19.50
2009,06,04,08,02,19.50
2009,06,04,08,03,19.60
2009,06,04,08,04,19.70
2009,06,04,08,05,19.70
2009,06,04,08,06,19.80
2009,06,04,08,07,19.90
2009,06,04,08,08,19.90
2009,06,04,08,09,20.00
2009,06,04,08,10,20.10
2009,06,04,08,11,20.10
2009,06,04,08,12,20.20
2009,06,04,08,13,20.20
2009,06,04,08,14,20.20
2009,06,04,08,15,20.30
2009,06,04,08,16,20.50
2009,06,04,08,17,20.60
2009,06,04,08,18,20.70
2009,06,04,08,19,20.80
2009,06,04,08,20,20.90
2009,06,04,08,21,21.00
2009,06,04,08,22,21.20
2009,06,04,08,23,21.30
2009,06,04,08,24,21.30
2009,06,04,08,25,21.30
2009,06,04,08,26,21.30
2009,06,04,08,27,21.30
2009,06,04,08,28,21.30
2009,06,04,08,29,21.30
2009,06,04,08,30,21.30
2009,06,04,08,31,21.30
2009,06,04,08,32,21.40
2009,06,04,08,33,21.50
2009,06,04,08,34,21.60
2009,06,04,08,35,21.60
2009,06,04,08,36,21.70
2009,06,04,08,37,21.70
2009,06,04,08,38,21.80
2009,06,04,08,39,21.80
2009,06,04,08,40,21.80
2009,06,04,08,41,21.80
2009,06,04,08,42,21.80
2009,06,04,08,43,21.80
2009,06,04,08,44,21.80
2009,06,04,08,45,21.90
2009,06,04,08,46,21.90
2009,06,04,08,47,21.90
2009,06,04,08,48,22.00
2009,06,04,08,49,22.00
2009,06,04,08,50,22.10
2009,06,04,08,51,22.10
2009,06,04,08,52,22.20
2009,06,04,08,53,22.20
2009,06,04,08,54,22.20
2009,06,04,08,55,22.30
2009,06,04,08,56,22.30
2009,06,04,08,57,22.40
2009,06,04,08,58,22.40
2009,06,04,08,59,22.50
2009,06,04,09,00,22.60
2009,06,04,09,01,22.60
2009,06,04,09,02,22.70
2009,06,04,09,03,22.70
2009,06,04,09,04,22.80
2009,06,04,09,05,22.90
2009,06,04,09,06,22.90
2009,06,04,09,07,22.90
2009,06,04,09,08,22.90
2009,06,04,09,09,22.90
2009,06,04,09,10,23.00
2009,06,04,09,11,23.10
2009,06,04,09,12,23.20
2009,06,04,09,13,23.30
2009,06,04,09,14,23.30
2009,06,04,09,15,23.30
2009,06,04,09,16,23.30
2009,06,04,09,17,23.30
2009,06,04,09,18,23.30
2009,06,04,09,19,23.30
2009,06,04,09,20,23.20
2009,06,04,09,21,23.20
2009,06,04,09,22,23.10
2009,06,04,09,23,23.10
2009,06,04,09,24,23.00
2009,06,04,09,25,22.90
2009,06,04,09,26,22.80
2009,06,04,09,27,22.90
2009,06,04,09,28,22.80
2009,06,04,09,29,22.90
2009,06,04,09,30,22.90
2009,06,04,09,31,22.90
2009,06,04,09,32,23.00
2009,06,04,09,33,23.10
2009,06,04,09,34,23.10
2009,06,04,09,35,23.10
2009,06,04,09,36,23.10
2009,06,04,09,37,23.10
2009,06,04,09,38,23.10
2009,06,04,09,39,23.10
2009,06,04,09,40,23.10
2009,06,04,09,41,23.10
2009,06,04,09,42,23.10
2009,06,04,09,43,23.10
2009,06,04,09,44,23.10
2009,06,04,09,45,23.10
2009,06,04,09,46,23.10
2009,06,04,09,47,23.10
2009,06,04,09,48,23.10
2009,06,04,09,49,23.10
2009,06,04,09,50,23.10
2009,06,04,09,51,23.10
2009,06,04,09,52,23.10
2009,06,04,09,53,23.10
2009,06,04,09,54,23.10
2009,06,04,09,55,23.20
2009,06,04,09,56,23.30
2009,06,04,09,57,23.30
2009,06,04,09,58,23.30
2009,06,04,09,59,23.20
2009,06,04,10,00,23.10
2009,06,04,10,01,23.00
2009,06,04,10,02,22.90
2009,06,04,10,03,22.90
2009,06,04,10,04,22.90
2009,06,04,10,05,22.80
2009,06,04,10,06,22.80
2009,06,04,10,07,22.80
2009,06,04,10,08,22.90
2009,06,04,10,09,22.90
2009,06,04,10,10,22.90
2009,06,04,10,11,23.00
2009,06,04,10,12,23.10
2009,06,04,10,13,23.20
2009,06,04,10,14,23.20
2009,06,04,10,15,23.10
2009,06,04,10,16,23.10
2009,06,04,10,17,23.10
2009,06,04,10,18,23.00
2009,06,04,10,19,22.90
2009,06,04,10,20,22.90
2009,06,04,10,21,22.80
2009,06,04,10,22,22.80
2009,06,04,10,23,22.90
2009,06,04,10,24,22.90
2009,06,04,10,25,22.80
2009,06,04,10,26,22.80
2009,06,04,10,27,22.80
2009,06,04,10,28,22.80
2009,06,04,10,29,22.90
2009,06,04,10,30,22.90
2009,06,04,10,31,23.00
2009,06,04,10,32,23.10
2009,06,04,10,33,23.30
2009,06,04,10,34,23.30
2009,06,04,10,35,23.30
2009,06,04,10,36,23.40
2009,06,04,10,37,23.50
2009,06,04,10,38,23.70
2009,06,04,10,39,23.70
2009,06,04,10,40,23.70
2009,06,04,10,41,23.80
2009,06,04,10,42,23.80
2009,06,04,10,43,23.80
2009,06,04,10,44,23.70
2009,06,04,10,45,23.70
2009,06,04,10,46,23.70
2009,06,04,10,47,23.70
2009,06,04,10,48,23.60
2009,06,04,10,49,23.60
2009,06,04,10,50,23.60
2009,06,04,10,51,23.70
2009,06,04,10,52,23.70
2009,06,04,10,53,23.70
2009,06,04,10,54,23.80
2009,06,04,10,55,23.90
2009,06,04,10,56,24.00
2009,06,04,10,57,24.10
2009,06,04,10,58,24.10
2009,06,04,10,59,24.20
2009,06,04,11,00,24.20
2009,06,04,11,01,24.10
2009,06,04,11,02,24.10
2009,06,04,11,03,24.10
2009,06,04,11,04,24.10
2009,06,04,11,05,24.10
2009,06,04,11,06,24.10
2009,06,04,11,07,24.10
2009,06,04,11,08,24.10
2009,06,04,11,09,24.20
2009,06,04,11,10,24.20
2009,06,04,11,11,24.30
2009,06,04,11,12,24.30
2009,06,04,11,13,24.40
2009,06,04,11,14,24.40
2009,06,04,11,15,24.40
2009,06,04,11,16,24.40
2009,06,04,11,17,24.40
2009,06,04,11,18,24.50
2009,06,04,11,19,24.50
2009,06,04,11,20,24.50
2009,06,04,11,21,24.50
2009,06,04,11,22,24.50
2009,06,04,11,23,24.60
2009,06,04,11,24,24.60
2009,06,04,11,25,24.60
2009,06,04,11,26,24.60
2009,06,04,11,27,24.70
2009,06,04,11,28,24.70
2009,06,04,11,29,24.70
2009,06,04,11,30,24.70
2009,06,04,11,31,24.60
2009,06,04,11,32,24.50
2009,06,04,11,33,24.40
2009,06,04,11,34,24.30
2009,06,04,11,35,24.30
2009,06,04,11,36,24.30
2009,06,04,11,37,24.30
2009,06,04,11,38,24.30
2009,06,04,11,39,24.30
2009,06,04,11,40,24.30
2009,06,04,11,41,24.20
2009,06,04,11,42,24.20
2009,06,04,11,43,24.20
2009,06,04,11,44,24.20
2009,06,04,11,45,24.20
2009,06,04,11,46,24.20
2009,06,04,11,47,24.20
2009,06,04,11,48,24.10
2009,06,04,11,49,24.10
2009,06,04,11,50,24.20
2009,06,04,11,51,24.30
2009,06,04,11,52,24.40
2009,06,04,11,53,24.60
2009,06,04,11,54,24.70
2009,06,04,11,55,24.90
2009,06,04,11,56,24.90
2009,06,04,11,57,25.00
2009,06,04,11,58,25.00
2009,06,04,11,59,25.00
2009,06,04,12,00,25.00
2009,06,04,12,01,25.00
2009,06,04,12,02,25.00
2009,06,04,12,03,25.00
2009,06,04,12,04,25.10
2009,06,04,12,05,25.10
2009,06,04,12,06,25.00
2009,06,04,12,07,24.90
2009,06,04,12,08,24.90
2009,06,04,12,09,24.80
2009,06,04,12,10,24.70
2009,06,04,12,11,24.70
2009,06,04,12,12,24.70
2009,06,04,12,13,24.80
2009,06,04,12,14,24.80
2009,06,04,12,15,24.80
2009,06,04,12,16,24.70
2009,06,04,12,17,24.70
2009,06,04,12,18,24.80
2009,06,04,12,19,24.80
2009,06,04,12,20,24.80
2009,06,04,12,21,24.90
2009,06,04,12,22,25.00
2009,06,04,12,23,25.00
2009,06,04,12,24,25.10
2009,06,04,12,25,25.20
2009,06,04,12,26,25.30
2009,06,04,12,27,25.40
2009,06,04,12,28,25.50
2009,06,04,12,29,25.60
2009,06,04,12,30,25.60
2009,06,04,12,31,25.70
2009,06,04,12,32,25.80
2009,06,04,12,33,25.90
2009,06,04,12,34,26.00
2009,06,04,12,35,26.00
2009,06,04,12,36,26.00
2009,06,04,12,37,26.00
2009,06,04,12,38,25.90
2009,06,04,12,39,25.80
2009,06,04,12,40,25.80
2009,06,04,12,41,25.70
2009,06,04,12,42,25.70
2009,06,04,12,43,25.80
2009,06,04,12,44,25.80
2009,06,04,12,45,25.90
2009,06,04,12,46,25.90
2009,06,04,12,47,25.90
2009,06,04,12,48,25.90
2009,06,04,12,49,26.00
2009,06,04,12,50,26.00
2009,06,04,12,51,26.00
2009,06,04,12,52,26.10
2009,06,04,12,53,26.10
2009,06,04,12,54,26.00
2009,06,04,12,55,25.90
2009,06,04,12,56,25.90
2009,06,04,12,57,25.80
2009,06,04,12,58,25.60
2009,06,04,12,59,25.50
2009,06,04,13,00,25.50
2009,06,04,13,01,25.50
2009,06,04,13,02,25.60
2009,06,04,13,03,25.60
2009,06,04,13,04,25.50
2009,06,04,13,05,25.60
2009,06,04,13,06,25.60
2009,06,04,13,07,25.70
2009,06,04,13,08,25.70
2009,06,04,13,09,25.80
2009,06,04,13,10,25.90
2009,06,04,13,11,26.00
2009,06,04,13,12,26.00
2009,06,04,13,13,26.00
2009,06,04,13,14,26.10
2009,06,04,13,15,26.10
2009,06,04,13,16,26.20
2009,06,04,13,17,26.30
2009,06,04,13,18,26.30
2009,06,04,13,19,26.30
2009,06,04,13,20,26.20
2009,06,04,13,21,26.00
2009,06,04,13,22,26.00
2009,06,04,13,23,26.00
2009,06,04,13,24,26.00
2009,06,04,13,25,26.00
2009,06,04,13,26,26.00
2009,06,04,13,27,25.90
2009,06,04,13,28,25.80
2009,06,04,13,29,25.80
2009,06,04,13,30,25.70
2009,06,04,13,31,25.70
2009,06,04,13,32,25.60
2009,06,04,13,33,25.60
2009,06,04,13,34,25.60
2009,06,04,13,35,25.60
2009,06,04,13,36,25.60
2009,06,04,13,37,25.70
2009,06,04,13,38,25.70
2009,06,04,13,39,25.70
2009,06,04,13,40,25.60
2009,06,04,13,41,25.60
2009,06,04,13,42,25.60
2009,06,04,13,43,25.60
2009,06,04,13,44,25.70
2009,06,04,13,45,25.80
2009,06,04,13,46,25.80
2009,06,04,13,47,25.80
2009,06,04,13,48,25.80
2009,06,04,13,49,25.80
2009,06,04,13,50,25.90
2009,06,04,13,51,25.90
2009,06,04,13,52,26.00
2009,06,04,13,53,26.00
2009,06,04,13,54,25.90
2009,06,04,13,55,25.90
2009,06,04,13,56,25.90
2009,06,04,13,57,25.80
2009,06,04,13,58,25.80
2009,06,04,13,59,25.80
2009,06,04,14,00,25.90
2009,06,04,14,01,25.90
2009,06,04,14,02,26.00
2009,06,04,14,03,26.00
2009,06,04,14,04,26.00
2009,06,04,14,05,26.10
2009,06,04,14,06,26.00
2009,06,04,14,07,26.00
2009,06,04,14,08,26.00
2009,06,04,14,09,26.00
2009,06,04,14,10,26.00
2009,06,04,14,11,26.10
2009,06,04,14,12,26.10
2009,06,04,14,13,26.10
2009,06,04,14,14,26.10
2009,06,04,14,15,26.20
2009,06,04,14,16,26.20
2009,06,04,14,17,26.30
2009,06,04,14,18,26.30
2009,06,04,14,19,26.30
2009,06,04,14,20,26.30
2009,06,04,14,21,26.30
2009,06,04,14,22,26.30
2009,06,04,14,23,26.40
2009,06,04,14,24,26.40
2009,06,04,14,25,26.50
2009,06,04,14,26,26.60
2009,06,04,14,27,26.70
2009,06,04,14,28,26.80
2009,06,04,14,29,26.80
2009,06,04,14,30,26.80
2009,06,04,14,31,26.90
2009,06,04,14,32,26.90
2009,06,04,14,33,27.10
2009,06,04,14,34,27.10
2009,06,04,14,35,27.10
2009,06,04,14,36,27.10
2009,06,04,14,37,27.10
2009,06,04,14,38,26.90
2009,06,04,14,39,26.80
2009,06,04,14,40,26.80
2009,06,04,14,41,26.90
2009,06,04,14,42,27.00
2009,06,04,14,43,27.00
2009,06,04,14,44,26.90
2009,06,04,14,45,26.80
2009,06,04,14,46,26.80
2009,06,04,14,47,26.70
2009,06,04,14,48,26.80
2009,06,04,14,49,26.80
2009,06,04,14,50,26.90
2009,06,04,14,51,27.10
2009,06,04,14,52,27.10
2009,06,04,14,53,27.20
2009,06,04,14,54,27.20
2009,06,04,14,55,27.30
2009,06,04,14,56,27.30
2009,06,04,14,57,27.30
2009,06,04,14,58,27.40
2009,06,04,14,59,27.50
2009,06,04,15,00,27.60
2009,06,04,15,01,27.70
2009,06,04,15,02,27.70
2009,06,04,15,03,27.80
2009,06,04,15,04,27.80
2009,06,04,15,05,27.70
2009,06,04,15,06,27.70
2009,06,04,15,07,27.60
2009,06,04,15,08,27.50
2009,06,04,15,09,27.40
2009,06,04,15,10,27.40
2009,06,04,15,11,27.40
2009,06,04,15,12,27.40
2009,06,04,15,13,27.40
2009,06,04,15,14,27.40
2009,06,04,15,15,27.50
2009,06,04,15,16,27.60
2009,06,04,15,17,27.60
2009,06,04,15,18,27.70
2009,06,04,15,19,27.70
2009,06,04,15,20,27.70
2009,06,04,15,21,27.60
2009,06,04,15,22,27.60
2009,06,04,15,23,27.50
2009,06,04,15,24,27.30
2009,06,04,15,25,27.30
2009,06,04,15,26,27.30
2009,06,04,15,27,27.40
2009,06,04,15,28,27.40
2009,06,04,15,29,27.60
2009,06,04,15,30,27.60
2009,06,04,15,31,27.70
2009,06,04,15,32,27.70
2009,06,04,15,33,27.80
2009,06,04,15,34,27.80
2009,06,04,15,35,27.90
2009,06,04,15,36,27.90
2009,06,04,15,37,28.00
2009,06,04,15,38,28.00
2009,06,04,15,39,28.00
2009,06,04,15,40,28.00
2009,06,04,15,41,28.10
2009,06,04,15,42,28.10
2009,06,04,15,43,28.10
2009,06,04,15,44,28.10
2009,06,04,15,45,28.20
2009,06,04,15,46,28.30
2009,06,04,15,47,28.30
2009,06,04,15,48,28.30
2009,06,04,15,49,28.30
2009,06,04,15,50,28.20
2009,06,04,15,51,28.20
2009,06,04,15,52,28.20
2009,06,04,15,53,28.20
2009,06,04,15,54,28.10
2009,06,04,15,55,28.00
2009,06,04,15,56,27.90
2009,06,04,15,57,27.90
2009,06,04,15,58,27.90
2009,06,04,15,59,27.90
2009,06,04,16,00,27.90
2009,06,04,16,01,28.00
2009,06,04,16,02,27.90
2009,06,04,16,03,27.80
2009,06,04,16,04,27.80
2009,06,04,16,05,27.80
2009,06,04,16,06,27.90
2009,06,04,16,07,27.90
2009,06,04,16,08,28.00
2009,06,04,16,09,28.10
2009,06,04,16,10,28.20
2009,06,04,16,11,28.20
2009,06,04,16,12,28.30
2009,06,04,16,13,28.30
2009,06,04,16,14,28.20
2009,06,04,16,15,28.20
2009,06,04,16,16,28.20
2009,06,04,16,17,28.20
2009,06,04,16,18,28.20
2009,06,04,16,19,28.10
2009,06,04,16,20,28.10
2009,06,04,16,21,28.10
2009,06,04,16,22,28.10
2009,06,04,16,23,28.00
2009,06,04,16,24,28.00
2009,06,04,16,25,28.10
2009,06,04,16,26,28.10
2009,06,04,16,27,28.20
2009,06,04,16,28,28.20
2009,06,04,16,29,28.30
2009,06,04,16,30,28.40
2009,06,04,16,31,28.40
2009,06,04,16,32,28.40
2009,06,04,16,33,28.40
2009,06,04,16,34,28.30
2009,06,04,16,35,28.40
2009,06,04,16,36,28.40
2009,06,04,16,37,28.60
2009,06,04,16,38,28.60
2009,06,04,16,39,28.70
2009,06,04,16,40,28.80
2009,06,04,16,41,28.80
2009,06,04,16,42,28.80
2009,06,04,16,43,28.90
2009,06,04,16,44,28.90
2009,06,04,16,45,28.70
2009,06,04,16,46,28.60
2009,06,04,16,47,28.40
2009,06,04,16,48,28.20
2009,06,04,16,49,28.10
2009,06,04,16,50,28.20
2009,06,04,16,51,28.20
2009,06,04,16,52,28.20
2009,06,04,16,53,28.30
2009,06,04,16,54,28.30
2009,06,04,16,55,28.30
2009,06,04,16,56,28.30
2009,06,04,16,57,28.20
2009,06,04,16,58,28.10
2009,06,04,16,59,28.10
2009,06,04,17,00,28.00
2009,06,04,17,01,27.90
2009,06,04,17,02,27.80
2009,06,04,17,03,27.70
2009,06,04,17,04,27.60
2009,06,04,17,05,27.60
2009,06,04,17,06,27.60
2009,06,04,17,07,27.60
2009,06,04,17,08,27.60
2009,06,04,17,09,27.70
2009,06,04,17,10,27.70
2009,06,04,17,11,27.70
2009,06,04,17,12,27.70
2009,06,04,17,13,27.70
2009,06,04,17,14,27.70
2009,06,04,17,15,27.70
2009,06,04,17,16,27.70
2009,06,04,17,17,27.80
2009,06,04,17,18,27.70
2009,06,04,17,19,27.70